Retour au catalogue

STARLINK-5284

ActifCommunicationsVLEO
NORAD 55297·PAYLOAD·🇺🇸 United States

Lancé Jan 19, 2023 depuis Vandenberg Space Force Base

Loading…

Prochains Passages (prochaines 24 heures)

TLE

FraisSource: CelesTrak SupGP

Époque: Sep 15, 2026, 02:31 UTC

1 55297C 23010AE  26258.10534722 -.00030644  00000+0 -25674-2 0  2583
2 55297  70.0000 266.8028 0003532 266.6687  85.7010 14.98355055    10

Suivez STARLINK-5284 en temps réel avec AllMySat

Download on the App Store